Weather History for Pullman, WA

Change the Weather History Date:

Saturday, November 9, 2013

  Actual Average Record
Temperature  
Mean Temperature 40 °F 39 °F  
Max Temperature 45 °F 46 °F 61 °F (1954)
Min Temperature 35 °F 32 °F 3 °F (1945)
Degree Days  
Heating Degree Days 25 26  
Month to date heating degree days 238 219  
Since 1 July heating degree days 1075 1125  
Cooling Degree Days 0 0  
Month to date cooling degree days 0 0  
Year to date cooling degree days 334 213  
Moisture  
Dew Point 34 °F    
Average Humidity 80    
Maximum Humidity 89    
Minimum Humidity 70    
Precipitation  
Precipitation 0.00 in 0.07 in 0.51 in (1940)
Month to date precipitation 1.05 0.66  
Year to date precipitation 12.74 13.69  
Sea Level Pressure  
Sea Level Pressure 30.18 in    
Wind  
Wind Speed 10 mph (East)    
Max Wind Speed 17 mph    
Max Gust Speed 21 mph    
Visibility 10 miles    
Events      
T = Trace of Precipitation, MM = Missing Value Source: NWS Daily Summary

Daily Weather History Graph

Daily Weather History Graph

Search for Another Location

Airport:

Trip Planner

Search our weather history database for the weather conditions in past years. The results will help you decide how hot, cold, wet, or windy it might be!

Date:

Astronomy

Nov. 09, 2013 Rise Set
Actual Time 6:42 AM PST 4:21 PM PST
Civil Twilight 6:10 AM PST 4:53 PM PST
Nautical Twilight 5:34 AM PST 5:29 PM PST
Astronomical Twilight 4:58 AM PST 6:05 PM PST
Moon 12:18 PM PST (11/9) 11:02 PM PST (11/9)
Length of Visible Light 10h 43m
Length of Day
9h 38m
Waxing Crescent, 45% of the Moon is Illuminated
Nov 9
Waxing Crescent
Nov 9
First Quarter
Nov 17
Full
Nov 25
Last Quarter
Dec 2
New

Hourly Weather History & Observations

Time (PST) Temp. Windchill Dew Point Humidity Pressure Visibility Wind Dir Wind Speed Gust Speed Precip Events Conditions
12:53 AM 35.1 °F 32.2 °F 32.0 °F 89% 30.21 in 10.0 mi East 3.5 mph - N/A   Clear
1:53 AM 36.0 °F 30.3 °F 32.0 °F 86% 30.21 in 10.0 mi East 6.9 mph - N/A   Partly Cloudy
2:53 AM 36.0 °F 30.3 °F 32.0 °F 86% 30.21 in 10.0 mi East 6.9 mph - N/A   Clear
3:53 AM 36.0 °F 28.0 °F 32.0 °F 86% 30.20 in 10.0 mi East 11.5 mph - N/A   Clear
4:53 AM 35.1 °F 27.4 °F 30.9 °F 85% 30.22 in 10.0 mi East 10.4 mph - N/A   Clear
5:53 AM 36.0 °F 28.5 °F 32.0 °F 86% 30.21 in 10.0 mi East 10.4 mph - N/A   Clear
6:53 AM 35.1 °F 27.9 °F 30.9 °F 85% 30.23 in 10.0 mi East 9.2 mph - N/A   Clear
7:53 AM 37.0 °F 28.5 °F 32.0 °F 82% 30.23 in 10.0 mi East 13.8 mph - N/A   Clear
8:53 AM 39.0 °F 31.0 °F 32.0 °F 76% 30.23 in 10.0 mi East 13.8 mph - N/A   Clear
9:53 AM 41.0 °F 33.9 °F 33.1 °F 73% 30.23 in 10.0 mi East 12.7 mph - N/A   Clear
10:53 AM 43.0 °F 35.7 °F 34.0 °F 71% 30.20 in 10.0 mi East 15.0 mph - N/A   Clear
11:53 AM 45.0 °F 38.5 °F 35.1 °F 68% 30.19 in 10.0 mi East 13.8 mph - N/A   Clear
12:53 PM 45.0 °F 39.7 °F 35.1 °F 68% 30.18 in 10.0 mi ESE 10.4 mph - N/A   Clear
1:53 PM 45.0 °F 38.9 °F 35.1 °F 68% 30.16 in 10.0 mi East 12.7 mph - N/A   Mostly Cloudy
2:53 PM 45.0 °F 39.3 °F 35.1 °F 68% 30.16 in 10.0 mi East 11.5 mph - N/A   Overcast
3:53 PM 44.1 °F 38.1 °F 35.1 °F 71% 30.14 in 10.0 mi East 11.5 mph - N/A   Overcast
4:53 PM 44.1 °F 38.6 °F 35.1 °F 71% 30.16 in 10.0 mi East 10.4 mph - N/A   Overcast
5:53 PM 44.1 °F 38.6 °F 35.1 °F 71% 30.15 in 10.0 mi East 10.4 mph - N/A   Overcast
6:53 PM 44.1 °F 38.1 °F 35.1 °F 71% 30.16 in 10.0 mi East 11.5 mph - N/A   Overcast
7:53 PM 43.0 °F 37.2 °F 35.1 °F 74% 30.14 in 10.0 mi East 10.4 mph - N/A   Overcast
8:53 PM 43.0 °F 37.7 °F 35.1 °F 74% 30.15 in 10.0 mi East 9.2 mph - N/A   Overcast
9:53 PM 43.0 °F 37.7 °F 35.1 °F 74% 30.15 in 10.0 mi East 9.2 mph - N/A   Overcast
10:53 PM 43.0 °F 39.5 °F 35.1 °F 74% 30.14 in 10.0 mi East 5.8 mph - N/A   Overcast
11:53 PM 44.1 °F 41.5 °F 35.1 °F 71% 30.13 in 10.0 mi East 4.6 mph - N/A   Overcast